Find Local Weather

World > North America > United States > Washington

Sunnyside, Washington Regional Weather

Lat: 46.32N, Lon: 120.01W
Wx Zone: WAZ027
Feedback
Expires:201810152300;;241201
ASUS46 KSEW 152210
RWRWA 

WASHINGTON REGIONAL WEATHER ROUNDUP
NATIONAL WEATHER SERVICE SEATTLE WA
300 PM PDT MON OCT 15 2018

NOTE:"FAIR" INDICATES FEW OR NO CLOUDS BELOW 12,000 FEET WITH NO 
SIGNIFICANT WEATHER AND/OR OBSTRUCTIONS TO VISIBILITY.


WAZ026-027-041>044-520-521-152300-
EAST SLOPES
  
CITY           SKY/WX    TMP DP  RH WIND       PRES   REMARKS
OMAK           SUNNY     60  30  32 VRB3      30.40F                  
WENATCHEE      SUNNY     60  29  30 SE7       30.39F                  
ELLENSBURG     SUNNY     65  29  25 VRB3      30.39F                  
YAKIMA         SUNNY     63  25  23 SE6       30.40F                  
SUNNYSIDE ARPT NOT AVBL                                               
$$


SKY/WX - Weather  TMP - Temperature  DP - Dew Point  RH - Relative Humidity
WIND - Wind Direction/Speed PRES - Barometric Pressure